SCP
0 0 0 0 0 0 0 0 0 0 0 0 0 0 0 0 0 0 0 0 0 0 0 0 0 0 0 0 0 0 0 0 0 0 1 1 1 1 1 1 1 0 0 0
0 0 0 0 0 0 0 0 0 0 0 0 0 0 0 0 0 0 0 0 0 0 0 0 0 0 0 0 0 0 0 0 1 1 1 1 1 1 1 1 1 0 0 0
0 0 0 0 0 0 0 0 0 0 0 0 0 0 0 0 0 0 0 0 0 0 0 0 0 0 0 0 0 0 0 0 1 1 1 1 1 1 1 1 1 1 1 0
0 0 0 0 0 0 0 0 0 0 0 0 0 0 0 0 0 0 0 0 0 0 0 0 0 0 0 0 0 0 0 0 0 1 1 1 1 1 1 1 1 1 1 1
0 0 0 0 0 0 0 0 0 0 0 0 0 0 0 0 0 0 0 0 0 0 0 0 0 0 0 0 0 0 0 0 0 0 1 1 0 1 1 1 1 1 1 1
0 0 0 0 0 0 0 0 0 0 0 0 0 0 0 0 0 0 0 0 0 0 0 0 0 0 0 0 0 0 0 0 0 0 0 0 0 0 1 1 1 1 1 1
0 0 0 0 0 0 0 0 0 0 0 0 0 0 0 0 0 0 0 0 0 0 0 0 0 0 0 0 0 0 0 0 0 0 0 0 0 0 0 0 0 0 1 1
0 0 0 0 0 0 0 0 0 0 0 0 0 0 0 0 0 0 0 0 0 0 0 0 0 0 0 0 0 0 0 0 0 0 0 0 0 0 0 0 0 0 0 0
0 0 0 0 0 0 0 0 0 0 0 0 0 0 0 0 0 0 0 0 0 0 0 0 0 0 0 0 0 0 0 0 0 0 0 0 0 0 0 0 0 0 0 0
0 0 0 0 0 0 0 0 0 0 0 0 0 0 0 0 0 0 0 0 0 0 0 0 0 0 0 0 0 0 0 0 0 0 0 0 0 0 0 0 0 0 0 0
0 0 0 0 0 0 0 0 0 0 0 0 0 0 0 0 0 0 0 0 0 0 0 0 0 0 0 0 0 0 0 0 0 0 0 0 0 0 0 0 0 0 0 0
0 0 0 0 0 0 0 0 0 0 0 0 0 0 0 0 0 0 0 0 0 0 0 0 0 0 0 0 0 0 0 0 0 0 0 0 0 0 0 0 0 0 0 0
0 0 0 0 0 0 0 0 0 0 0 0 0 0 0 0 0 0 0 0 0 0 0 0 0 0 0 0 0 0 0 0 0 0 0 0 0 0 0 0 0 0 0 0
0 0 0 0 0 0 0 0 0 0 0 0 0 0 0 0 0 0 0 0 0 0 0 0 0 0 0 0 0 0 0 0 0 0 0 0 0 0 0 0 0 0 0 0
0 0 0 0 0 0 0 0 0 0 0 0 0 0 0 0 0 0 0 0 0 0 0 0 0 0 0 0 0 0 0 0 0 0 0 0 0 0 0 0 0 0 0 0
0 0 0 0 0 0 0 0 0 0 0 0 0 0 0 0 0 0 0 0 0 0 0 0 0 0 0 0 0 0 0 0 0 0 0 0 0 0 0 0 0 0 0 0
0 0 0 0 0 0 0 0 0 0 0 0 0 0 0 0 0 0 0 0 0 0 0 0 0 0 0 0 0 0 0 0 0 0 0 0 0 0 0 0 0 0 0 0
0 0 0 0 0 0 0 0 0 0 0 0 0 0 0 0 0 0 0 0 0 0 0 0 0 0 0 0 0 0 0 0 0 0 0 0 0 0 0 0 0 0 0 0
0 0 0 0 0 0 0 0 0 0 0 0 0 0 0 0 0 0 0 0 0 0 0 0 0 0 0 0 0 0 0 0 0 0 0 0 0 0 0 0 0 0 0 0
0 0 0 0 0 0 0 0 0 0 0 0 0 0 0 0 0 0 0 0 0 0 0 0 0 0 0 0 0 0 0 0 0 0 0 0 0 0 0 0 0 0 0 0
0 0 0 0 0 0 0 0 0 0 0 0 0 0 0 0 0 0 0 0 0 0 0 0 0 0 0 0 0 0 0 0 0 0 0 0 0 0 0 0 0 0 0 0
0 0 0 0 0 0 0 0 0 0 0 0 0 0 0 0 0 0 0 0 0 0 0 0 0 0 0 0 0 0 0 0 0 0 0 0 0 0 0 0 0 0 0 0
0 0 0 0 0 0 0 0 0 0 0 0 0 0 0 0 0 0 0 0 0 0 0 0 0 0 0 0 0 0 0 0 0 0 0 0 0 0 0 0 0 0 0 0
0 0 0 0 0 0 0 0 0 0 0 0 0 0 0 0 0 0 0 0 0 0 0 0 0 0 0 0 0 0 0 0 0 0 0 0 0 0 0 0 0 0 0 0
0 0 0 0 0 0 0 0 0 0 0 0 0 0 0 0 0 0 0 0 0 0 0 0 0 0 0 0 0 0 0 0 0 0 0 0 0 0 0 0 0 0 0 0
0 0 0 0 0 0 0 0 0 0 0 0 0 0 0 0 0 0 0 0 0 0 0 0 0 0 0 0 0 0 0 0 0 0 0 0 0 0 0 0 0 0 0 0
Wind_Speed
5 9 13 15 10 3 9 9 8 5 2 5 9 12 12 8 8 11 11 10 10 9 7 5 6 7 9 12 14 16 16 16 13 10 10 10 10 9 8 8 10 11 10 11
7 13 9 7 7 7 8 8 6 3 2 2 4 10 11 9 9 10 11 11 10 9 7 5 4 5 7 9 12 14 16 16 15 12 11 9 10 8 8 7 9 11 11 11
14 5 10 9 8 8 6 8 7 6 4 2 4 9 8 6 5 7 9 9 9 8 8 6 3 3 4 6 8 9 12 13 15 14 10 7 7 6 7 9 8 10 10 11
9 5 9 11 11 11 9 5 7 7 5 2 2 7 5 4 6 7 6 6 6 4 3 3 2 2 1 2 3 6 8 10 11 12 11 12 10 10 11 8 7 8 10 10
10 9 10 12 11 9 5 6 6 4 3 2 4 7 7 2 7 7 4 2 0 1 1 1 2 2 3 3 1 2 4 6 8 10 11 11 11 9 7 6 6 6 7 8
4 3 4 6 5 7 12 9 7 4 3 7 7 9 9 6 7 4 2 2 3 3 3 3 4 4 5 5 4 4 4 3 4 6 8 10 10 9 7 6 4 4 4 4
5 3 2 5 9 5 8 10 5 5 6 8 4 8 11 5 5 4 2 0 3 3 3 5 5 6 6 7 6 6 6 5 4 3 4 5 6 6 6 5 4 3 2 2
14 10 10 8 8 12 11 13 9 9 8 5 4 10 9 3 3 4 4 1 2 3 4 6 6 6 7 7 7 7 7 7 6 5 3 2 1 1 1 1 1 2 2 2
16 11 4 4 2 12 11 8 3 5 3 2 7 8 10 5 5 5 5 5 5 5 5 6 6 7 7 7 8 7 8 8 7 6 5 4 3 3 2 2 1 1 1 1
9 9 4 4 4 3 4 11 6 6 7 7 7 8 7 7 10 8 8 8 7 6 6 6 6 7 7 7 8 8 8 8 7 7 6 4 5 4 3 3 3 2 2 2
6 9 5 5 12 14 9 8 7 7 5 7 7 8 5 8 10 12 10 9 8 7 7 6 6 6 7 7 7 8 8 8 7 7 6 6 5 5 4 4 4 3 3 3
6 7 6 7 1 3 6 11 12 10 9 6 5 7 2 4 6 9 10 9 8 8 7 6 6 6 6 7 7 7 7 7 7 6 6 6 5 5 5 5 4 4 3 3
10 9 8 4 3 4 8 7 8 4 6 7 8 8 3 3 6 8 9 9 9 8 8 7 6 6 6 6 6 7 7 6 6 6 6 6 6 6 6 5 5 5 4 4
6 7 10 16 10 12 10 10 10 9 7 10 16 13 4 7 9 10 10 10 10 9 8 7 6 6 5 5 6 6 7 6 6 6 6 7 7 6 6 5 5 5 5 5
6 7 5 3 4 10 12 16 18 18 19 16 19 19 15 13 13 13 12 11 10 10 9 8 7 6 5 5 5 5 6 6 6 6 7 7 6 6 6 6 6 6 5 5
6 5 5 3 4 5 6 14 21 23 21 23 19 19 7 11 10 11 12 12 12 12 10 9 8 7 6 5 5 4 5 5 5 6 6 6 6 6 6 6 6 6 6 6
9 8 7 5 6 3 11 18 19 17 16 16 24 21 7 10 13 15 15 15 14 13 12 10 9 7 5 4 4 4 4 4 5 5 5 5 5 6 6 6 6 6 6 6
10 8 5 6 7 14 10 5 15 18 17 18 14 7 11 12 12 10 11 13 13 13 12 11 9 7 5 4 4 4 3 4 4 4 5 5 5 6 6 6 6 7 6 6
6 8 6 7 10 11 7 5 10 14 17 16 18 12 7 7 6 4 5 8 10 12 11 10 8 7 6 4 3 3 4 4 4 4 5 5 6 6 7 7 8 7 7 8
5 6 6 7 9 13 7 5 5 7 11 7 13 13 10 12 9 8 9 9 11 11 10 9 8 7 5 4 3 3 3 3 4 5 5 5 5 6 7 8 8 7 7 8
10 8 10 10 10 10 2 4 9 11 8 2 6 8 12 11 4 9 13 11 11 11 10 9 8 6 4 3 3 3 3 3 4 5 5 6 6 6 7 7 7 8 8 8
13 11 11 10 11 11 6 9 11 4 3 3 4 6 8 8 11 13 13 13 12 11 9 8 7 5 4 3 3 3 3 3 4 5 6 6 6 6 6 7 7 7 8 9
8 7 6 8 7 1 6 4 1 3 4 4 5 7 11 11 11 12 12 11 10 9 7 6 6 5 4 4 3 2 3 4 5 5 6 6 7 6 6 7 8 7 7 7
4 1 3 4 3 2 2 1 2 3 3 4 6 9 11 11 12 11 10 9 8 7 6 5 5 4 3 3 3 2 3 4 4 6 7 6 7 7 7 6 6 6 7 7
6 8 5 4 2 1 3 5 5 4 5 6 6 6 9 12 11 10 9 8 7 6 5 4 3 3 2 1 1 2 3 4 5 6 6 7 6 7 8 7 7 8 8 9
6 8 9 7 8 7 6 6 8 8 7 8 8 6 5 8 10 9 8 6 6 6 4 4 3 2 1 1 2 2 3 3 4 6 6 5 6 6 7 8 9 11 13 15
Wind_Direction
159 190 199 192 192 169 170 173 177 169 128 199 230 251 258 255 253 256 255 253 252 255 261 259 249 237 229 225 222 220 217 214 210 208 209 211 214 213 212 211 210 206 205 202
165 211 194 148 130 120 151 168 165 126 89 218 259 266 264 255 246 248 253 255 257 260 258 259 262 244 229 224 221 220 218 215 210 211 212 216 220 219 215 210 211 209 207 203
193 175 150 146 156 151 167 179 169 151 126 93 304 269 246 243 241 252 251 255 262 263 270 277 281 269 242 231 225 220 218 215 213 211 212 209 217 221 217 218 215 212 210 208
195 151 161 168 183 179 198 184 149 142 170 203 280 273 260 254 272 251 244 242 251 258 265 288 310 324 311 272 241 223 217 214 212 209 210 210 212 217 221 221 219 212 207 211
189 164 167 188 189 170 139 121 121 130 156 230 213 255 267 268 259 247 231 221 109 41 25 30 30 25 26 24 51 179 191 202 207 207 209 212 220 225 229 223 219 216 208 211
125 164 183 166 117 131 128 104 82 86 162 244 216 224 261 219 224 216 169 102 68 62 68 72 67 64 58 54 62 85 118 138 178 196 206 212 218 222 224 223 224 224 217 215
147 162 135 131 117 129 166 147 148 175 207 232 156 225 250 236 231 232 225 105 59 67 84 82 77 72 65 60 63 73 84 87 100 138 177 202 215 220 227 227 226 227 230 231
180 191 191 184 166 167 187 185 180 187 204 202 179 235 252 260 263 253 240 201 116 104 93 84 76 73 69 64 65 72 78 77 77 87 94 98 134 182 203 223 226 228 245 256
188 187 132 175 170 156 166 198 157 122 105 209 224 250 280 254 242 214 189 162 144 120 104 94 84 76 72 68 64 67 75 75 72 75 81 78 74 78 81 68 45 16 346 332
158 160 144 143 118 8 189 150 147 168 170 220 240 236 232 200 200 183 174 161 145 130 114 100 87 80 74 72 71 69 71 73 71 70 70 71 71 69 67 64 53 32 10 354
138 136 136 172 197 178 147 170 180 178 192 198 233 241 213 206 189 179 171 160 151 140 126 110 97 86 81 76 72 70 69 70 68 67 70 72 66 63 64 58 45 27 14 358
145 128 151 194 169 255 200 187 174 182 203 211 228 253 97 218 192 173 163 158 150 140 129 117 107 97 85 77 71 68 65 65 64 67 70 68 63 58 54 47 33 19 10 358
152 139 127 147 193 190 214 204 201 171 147 179 210 242 75 154 168 169 162 158 153 148 139 129 116 103 90 80 74 70 63 61 61 67 71 65 55 47 39 30 20 13 4 355
145 161 189 203 198 177 191 195 190 177 193 214 229 236 189 180 178 176 174 168 162 159 150 139 125 109 96 87 79 72 63 54 56 62 62 55 43 35 27 18 12 7 359 350
163 191 200 212 148 167 192 197 196 209 219 224 236 237 224 199 193 187 178 170 168 167 160 151 138 126 113 97 83 72 66 54 52 58 54 44 33 26 19 13 5 358 352 344
170 169 151 162 166 176 207 210 207 216 226 234 246 248 227 195 193 188 186 183 183 178 169 157 146 136 123 108 93 81 69 57 53 56 48 34 23 16 10 1 352 348 343 338
169 151 160 185 151 133 237 219 211 218 222 227 239 246 168 187 195 198 194 191 188 179 168 160 152 142 130 116 103 89 75 64 58 55 43 27 13 4 356 347 344 341 334 327
166 154 153 147 157 222 236 200 207 217 226 224 237 233 188 198 196 195 192 188 183 171 163 156 148 137 125 116 105 94 80 67 58 47 34 17 3 353 344 340 336 331 323 318
172 158 163 182 215 247 255 199 191 207 233 225 230 230 192 138 124 184 185 179 170 160 150 144 139 133 128 117 107 99 80 63 48 30 15 1 352 343 337 333 328 324 319 313
171 164 174 186 210 231 235 169 173 165 244 216 214 216 178 154 194 205 162 148 137 135 135 134 131 126 119 103 99 93 72 52 30 7 351 343 341 332 324 319 316 313 308 301
180 186 201 205 224 250 213 155 151 186 234 171 197 193 174 188 197 128 135 134 132 129 128 128 125 115 101 90 99 92 70 39 5 345 334 332 331 320 310 307 304 304 302 300
183 187 197 198 217 233 154 160 186 188 105 134 150 154 149 124 114 128 134 134 133 130 127 126 120 109 89 74 81 82 55 12 349 336 328 323 319 313 308 305 303 301 299 298
200 191 184 197 213 81 163 179 136 136 147 152 145 141 136 131 136 139 140 139 137 133 127 121 123 117 94 61 55 63 14 353 341 327 317 312 311 306 305 303 303 303 297 292
220 193 173 202 223 168 178 157 154 155 142 136 140 143 146 143 145 144 143 143 139 134 130 129 132 133 114 65 46 22 352 345 329 317 315 314 313 311 309 300 292 290 290 289
182 170 179 208 176 130 228 209 179 145 128 125 124 135 151 145 147 152 153 153 149 140 133 132 139 136 114 63 17 358 349 341 322 313 309 311 308 306 305 296 286 285 276 270
188 181 185 205 186 184 194 183 168 160 163 158 147 140 143 153 154 153 153 149 145 142 134 132 125 123 102 334 318 338 346 336 318 310 311 309 305 303 299 300 297 284 280 284